Terug naar catalogus

STARLINK-3088

ActiefCommunicatieVLEO
NORAD 49163·PAYLOAD·🇺🇸 United States

Gelanceerd Sep 14, 2021 vanaf Vandenberg Space Force Base

Loading…

Volgende Passages (komende 24 uur)

TLE

VersSource: CelesTrak SupGP

Epoch: Sep 15, 2026, 02:20 UTC

1 49163C 21082AK  26258.09770833  .00013543  00000+0  11592-2 0  2589
2 49163  70.0012 158.2780 0003010 272.5035 179.3584 14.97506146    15

Volg STARLINK-3088 in realtime met AllMySat

Download on the App Store